Regional Weather Roundup
Issued by NWS

Home | Current Version | Previous Version | Graphics & Text | Print | Product List | Glossary On
Versions: 1 2 3 4 5 6 7 8 9 10 11 12 13 14 15 16 17 18 19 20 21 22 23 24 25 26 27 28 29 30 31 32 33 34 35 36 37 38 39 40 41 42 43 44 45 46 47 48 49 50
000
ASUS43 KLMK 050302
RWRKY
KENTUCKY REGIONAL WEATHER ROUNDUP
NATIONAL WEATHER SERVICE LOUISVILLE KY
1100 PM EDT SAT JUL 04 2015

NOTE "FAIR" INDICATES FEW OR NO CLOUDS BELOW 12,000 FEET
WITH NO SIGNIFICANT WEATHER AND/OR OBSTRUCTIONS TO VISIBILITY.

KYZ001>023-026-027-061>063-070>075-050400-
WESTERN AND SOUTH CENTRAL KENTUCKY

CITY           SKY/WX    TMP DP  RH WIND       PRES   REMARKS
PADUCAH        CLOUDY    72  69  90 CALM      30.00R FOG
HENDERSON      CLOUDY    73  66  78 CALM      29.99R
OWENSBORO      CLOUDY    76  71  84 CALM      30.01R
HOPKINSVILLE   CLOUDY    74  69  86 CALM      30.00R
BOWLING GREEN  CLOUDY    74  69  85 CALM      30.00R HAZE
GLASGOW        NOT AVBL
$$

KYZ024-025-028>034-038-045-046-053-050400-
NORTH CENTRAL KENTUCKY

CITY           SKY/WX    TMP DP  RH WIND       PRES   REMARKS
LOUISVILLE/SDF CLOUDY    78  67  68 E7        30.01R HAZE
LOUISVILLE/LOU CLOUDY    77  67  71 E3        30.02R HAZE
FORT KNOX      CLOUDY    71  70  94 E2        30.01R
$$

KYZ035>037-039>044-047>052-055>060-089>105-050400-
NORTHEAST KENTUCKY

CITY           SKY/WX    TMP DP  RH WIND       PRES   REMARKS
LEXINGTON      CLOUDY    73  66  78 E6        30.05R
COVINGTON      CLOUDY    73  61  65 E6        30.05R
FRANKFORT      CLOUDY    73  66  78 CALM      30.03R HAZE
$$

KYZ054-064>069-076>088-106>120-050400-
SOUTHEAST KENTUCKY

CITY           SKY/WX    TMP DP  RH WIND       PRES   REMARKS
JACKSON        CLOUDY    71  67  87 CALM      30.07R
LONDON         CLOUDY    71  65  81 E5        30.06R
SOMERSET       NOT AVBL
MIDDLESBORO    CLOUDY    71  69  95 CALM      30.08R
MONTICELLO     CLOUDY    72  70  93 S6        30.07R
$$




USA.gov is the U.S. government's official web portal to all federal, state and local government web resources and services.